Погода в Фигейра да Фош

Португалия     40°09′19″N   8°51′20″W
темп.,
°C
ветер,
м/с
пор.,
м/с
влажн.,
%
обл.,
%
осадки,
мм/ч
давл.,
гПа
погр.,
м
28 января, чт
чт2800:00+12вюв129898 0.0 102723
03:00+12вюв129896 0.0 102529
06:00+12вюв129794 0.0 102527
09:00+13вюв229387 0.0 102575
12:00+17ююв128193 0.0 1025361
15:00+17з3380100 0.0 1023470
18:00+15з2290100 0.0 102387
21:00+14юз229499 0.0 102377
29 января, пт
пт2900:00+13ююв239795 0.0 102462
03:00+13ююз229379 0.0 102373
06:00+13ююв249289 0.0 1022114
09:00+13ююв249238 0.0 1023157
12:00+16ююз457768 0.1 1023706
15:00+15ююз5882100 0.1 1021781
18:00+14ююз51087100 0.2 1020718
21:00+14ююз61292100 0.3 1020790
30 января, сб
сб3000:00+14юз91593100 1.8 1019859
03:00+13зсз51192100 1.3 1019726
06:00+11з4890100 1.6 1018258
09:00+12з6108590 0.2 1020934
12:00+14з7117180 0.3 10201398
15:00+13зсз81268100 0.2 10201544
18:00+12сз6117378 0.4 10211134
21:00+12сз5107365 0.0 10221099
31 января, вс
вс3100:00+12сз487982 0.1 1022847
03:00+12зсз378594 0.1 1022548
06:00+12зюз378985 0.1 1021473
09:00+13юз41089100 0.0 1021683
12:00+14зюз61287100 0.0 1021634
15:00+14зюз61194100 0.2 1019545
18:00+14з51196100 0.8 1019539
21:00+14зсз599497 0.3 1021518
1 февраля, пн
пн100:00+13зсз499767 0.4 1021367
03:00+12зсз359622 0.1 1021155
06:00+13з239353 0.1 1021101
09:00+13ю2393100 0.1 1022137
12:00+15ю3487100 0.2 1022359
15:00+14юз4895100 0.3 1021421
18:00+14ююз379497 0.4 1021279
21:00+13ююз499794 0.0 1022401